Regional Weather Roundup
Issued by NWS

Home | Current Version | Previous Version | Graphics & Text | Print | Product List | Glossary On
Versions: 1 2 3 4 5 6 7 8 9 10 11 12 13 14 15 16 17 18 19 20 21 22 23 24 25 26 27 28 29 30 31 32 33 34 35 36 37 38 39 40 41 42 43 44 45 46 47 48 49 50
848
ASUS45 KTFX 220210
RWRMT
MONTANA REGIONAL WEATHER ROUNDUP
NATIONAL WEATHER SERVICE GREAT FALLS MT
700 PM MST TUE FEB 21 2017

NOTE: "FAIR" INDICATES FEW OR NO CLOUDS BELOW 12000 FEET WITH NO
SIGNIFICANT WEATHER AND/OR OBSTRUCTIONS TO VISIBILITY.

MTZ001>007-043-220300-
WEST OF THE DIVIDE

CITY           SKY/WX    TMP DP  RH WIND       PRES   REMARKS
KALISPELL      LGT SNOW  33  32  96 SW5       29.74R FOG
MISSOULA       LGT RAIN  36  36 100 CALM      29.77R
BUTTE          CLOUDY    39  15  37 W9G21     29.74R
MULLAN PASS    SNOW      25  25 100 NW7       29.73R VSB 1/2 WCI  17
ANACONDA         N/A     39  18  41 S15G28    29.71S WCI  31
DEER LODGE       N/A     43  18  36 SW15      29.72R
EUREKA           N/A     34  32  93 CALM      29.76R
HAMILTON         N/A     39  32  75 S8        29.79R
LIBBY            N/A     34  34 100 CALM      29.77R
PLAINS           N/A     35  30  82 CALM      29.81R
RONAN            N/A     35  33  92 CALM      29.81R
$$

MTZ008-052>055-220300-
SOUTHWEST MONTANA

CITY           SKY/WX    TMP DP  RH WIND       PRES   REMARKS
BOZEMAN        PTCLDY    43  23  45 SW20G28   29.73R
DILLON         CLOUDY    34  23  64 SW20      29.78R WCI  23
W YELLOWSTONE  CLOUDY    32  27  80 SW18G30   29.85R WCI  20
ENNIS          CLOUDY    36  21  55 SE7       29.85R WCI  30
THREE FORKS      N/A     41  41 100 CALM      29.74R
TWIN BRIDGES     N/A     36  21  54 SE9       29.80R WCI  29
$$

MTZ009-010-012-014-046-048-049-054-220300-
EAST SLOPES AND CENTRAL MONTANA

CITY           SKY/WX    TMP DP  RH WIND       PRES   REMARKS
CUT BANK       LGT SNOW  32  31  96 N7        29.67R FOG     WCI  26
GREAT FALLS    FOG       36  34  92 E7        29.65R VSB 1/4 WCI  30
MALMSTROM AFB  CLOUDY    35  36 100 CALM      29.67R FOG
HELENA         CLOUDY    46  20  35 SW8       29.66R
AUGUSTA        FOG       31  31 100 NE7       29.63R VSB 3/16WCI  24
BOWMANS CRNR   MOCLDY    35  32  90 S12       29.63R WCI  26
CHOTEAU        FOG       34  34 100 N6        29.67R VSB 1/2 WCI  29
CONRAD           N/A     32  32 100 MISG      29.72R
POWER          FOG       34  34  99 E6        29.64R VSB 3/8 WCI  29
RAYNESFORD     LGT RAIN  36  35  96 NW6       29.67R FOG     WCI  32
ULM            MOCLDY    37  36  96 MISG      29.65F
$$

MTZ011-013-016-021-045-047-050-051-220300-
NORTH CENTRAL MONTANA

CITY           SKY/WX    TMP DP  RH WIND       PRES   REMARKS
HAVRE          CLOUDY    34  33  96 NE3       29.68S
LEWISTOWN      CLOUDY    36  32  85 S10       29.66R WCI  28
N BAR RANCH      N/A     37  30  75 W6        29.69R
CHINOOK          N/A     36  36 100 CALM      29.69S
DENTON         MOCLDY    37  34  90 N7        29.62R WCI  31
FORT BENTON      N/A     36  34  93 CALM      29.69R
GEYSER         MOCLDY    35  34  96 SW7       29.66R WCI  29
GRASS RANGE      N/A     37  32  82 SW15      29.63R WCI  28
JUDITH GAP     MOCLDY    35  31  87 S3        29.65R
ROY              N/A     35  34  97 MISG      29.65R
STANFORD         N/A     33  31  91 CALM      29.65R
WINIFRED       MOCLDY    33  33  98 E9        29.64R WCI  25
$$

MTZ017>020-022>027-061-062-220300-
NORTHEAST MONTANA

CITY           SKY/WX    TMP DP  RH WIND       PRES   REMARKS
GLASGOW        CLOUDY    37  34  89 NE7       29.68R WCI  32
JORDAN           N/A     37  33  85 NE5       29.66R
SIDNEY         CLOUDY    40  36  86 N6        29.67F
WOLF POINT     CLOUDY    38  34  85 NE6       29.69R
PLENTYWOOD       N/A     34  34 100 N12       29.68F WCI  25
POPLAR           N/A     36  34  93 N7        29.69S WCI  30
SCOBEY           N/A     32  26  78 W1        29.69S
$$

MTZ028>42-056>058-220300-
SOUTHCENTRAL AND SOUTHEAST MONTANA

CITY           SKY/WX    TMP DP  RH WIND       PRES   REMARKS
BAKER          CLEAR     41  35  79 SW10      29.67R
BILLINGS       CLOUDY    50  22  33 W14       29.67R
LIVINGSTON     MOCLDY    45  20  36 W26G37    29.71R
MILES CITY     MOCLDY    44  39  82 NW8       29.66R
BIG TIMBER     PTCLDY    45  21  39 W17G28    29.72R
EKALAKA          N/A     44  32  63 NE1       29.70
FORSYTH          N/A     48  37  66 NW6       29.66S
HARLOWTON      MOCLDY    40  21  46 W7        29.66S
LAUREL           N/A     48  21  34 CALM      29.70R
$$

REGIONAL REPORTS...DAKOTAS

CITY           SKY/WX    TMP DP  RH WIND       PRES   REMARKS
WILLISTON      CLOUDY    39  32  76 N9        29.68S
MINOT          CLOUDY    40  35  83 SW3       29.66R
DICKINSON      CLOUDY    41  37  86 S5        29.58F
BEACH            N/A    N/A N/A N/A MISG        N/A
CROSBY         LGT SNOW  32  32 100 N9        29.71F VSB 1   WCI  24
TIOGA          CLOUDY    34  34 100 N10       29.67F WCI  26
WATFORD CITY   CLOUDY    37  37 100 NW5       29.67F
BISMARCK       CLOUDY    43  36  76 NE8       29.69R
GRAND FORKS    LGT RAIN  34  30  85 N5        29.69S VSB 1/4
FARGO          CLOUDY    41  39  93 W3        29.68S
BUFFALO SD       N/A     47  36  65 N17       29.62R
RAPID CITY     CLEAR     54  34  46 NW21      29.71R
$$

REGIONAL REPORTS...WYOMING/IDAHO/WASHINGTON

CITY           SKY/WX    TMP DP  RH WIND       PRES   REMARKS
GILLETTE       CLOUDY    48  36  63 NW7       29.74S
SHERIDAN       CLOUDY    48  30  49 SW25G31   29.71F
BUFFALO WY     CLOUDY    48  26  42 NW14      29.77R
CODY           CLOUDY    41  26  55 SW13G18   29.81R
YELLOWSTONE LA   N/A     25  24  96 CALM      29.87R
IDAHO FALLS    CLOUDY    36  31  82 S25G33    29.91F WCI  24
SALMON         CLOUDY    39  25  56 S18       29.81R WCI  30
BOISE          CLOUDY    47  29  49 W12       29.98R
SPOKANE        FLURRIES  33  32  96 SW14      29.87R WCI  23
$$

REGIONAL REPORTS...ALBERTA

CITY           SKY/WX    TMP DP  RH WIND       PRES   REMARKS
EDMONTON       MOCLDY    27  25  93 N3        29.75R
CALGARY        MOCLDY    28  25  86 S6        29.68S HAZE    WCI  22
LETHBRIDGE     LGT SNOW  32  30  93 S7        29.70S FOG     WCI  26
MEDICINE HAT   CLOUDY    36  32  87 NE7       29.72R WCI  30
CARDSTON         N/A     30  30 100 S2          N/A
MILK RIVER       N/A     32  32 100 N9          N/A  WCI  24
ONEFOUR          N/A     32  32 100 NE5         N/A
$$

REGIONAL REPORTS...SASKATCHEWAN

CITY           SKY/WX    TMP DP  RH WIND       PRES   REMARKS
SWIFT CURRENT  CLOUDY    30  28  93 NE6       29.72R WCI  24
SASKATOON      CLOUDY    32  25  74 NW5       29.78S
CYPRESS HILLS    N/A     28  27  93 NE5         N/A
VAL MARIE        N/A     32  34 100 NE9         N/A  WCI  24
ROCKGLEN         N/A     30  28  93 N12G17      N/A  WCI  21
$$




USA.gov is the U.S. government's official web portal to all federal, state and local government web resources and services.